SCP
0 0 0 0 0 0 0 0 0 0 0 0 0 0 0 0 0 0 0 0 0 0 0 0 0 0 0 0 0 0 0 0 0 0 0 0 0 0 0 0 0 0 0 0
0 0 0 0 0 0 0 0 0 0 0 0 0 0 0 0 0 0 0 0 0 0 0 0 0 0 0 0 0 0 0 0 0 0 0 0 0 0 0 0 -0 0 0 0
0 0 0 0 0 0 0 0 0 0 0 0 0 0 0 0 0 0 0 0 0 0 0 0 0 0 0 0 0 0 0 0 0 0 0 0 0 -0 0 0 0 0 0 0
0 0 0 0 0 0 0 0 0 0 0 0 0 0 0 0 0 0 0 0 0 0 0 0 0 0 0 0 0 0 0 0 0 0 0 0 0 -0 -0 0 0 0 0 0
0 0 0 0 0 0 0 0 0 0 0 0 0 0 0 0 0 0 0 0 0 0 0 0 0 0 0 0 0 0 0 0 0 -0 0 0 0 0 -0 0 0 0 -0 -0
0 0 0 0 0 0 0 0 0 0 0 0 0 0 0 0 0 0 0 0 0 0 0 0 0 0 0 0 0 0 0 0 0 0 0 -0 0 0 0 0 0 0 -0 -0
0 0 0 0 0 0 0 0 0 0 0 0 0 0 0 0 0 0 0 0 0 0 0 0 0 0 0 0 0 0 0 0 0 0 0 0 0 0 0 0 -0 -0 0 -0
0 0 0 0 0 0 0 0 0 0 0 0 0 0 0 0 0 0 0 0 0 0 0 0 0 0 0 0 0 0 0 0 0 0 0 0 0 0 0 0 -0 0 -0 0
0 0 0 0 0 0 0 0 0 0 0 0 0 0 0 0 0 0 0 0 0 0 0 0 0 0 0 -0 0 0 0 0 0 0 0 0 0 0 0 0 0 -0 0 0
0 0 0 0 0 0 0 0 0 0 0 0 0 0 0 0 0 0 0 0 0 -0 0 0 0 0 0 -0 0 0 0 0 0 0 0 0 0 0 0 0 -0 -0 -0 -0
0 0 0 0 0 0 0 0 0 0 0 0 0 0 0 0 0 0 0 -0 -0 -0 0 0 0 0 0 0 0 0 0 0 0 0 0 0 0 0 -0 -0 -0 -0 -0 -0
0 0 0 0 0 0 0 0 0 0 0 0 0 0 0 0 0 0 0 0 0 -0 -0 -0 0 0 0 0 0 0 0 0 0 0 0 0 -0 0 0 0 0 0 0 0
0 0 0 0 0 0 0 0 0 0 0 0 0 0 0 0 0 0 0 0 0 0 0 0 0 0 0 0 0 0 0 0 0 0 0 0 0 0 0 0 0 0 0 0
0 0 0 0 0 0 0 0 0 0 0 0 0 0 0 0 0 0 0 -0 0 0 0 0 0 0 0 0 0 0 0 0 0 0 0 0 0 0 0 0 0 0 0 0
0 0 0 0 0 0 0 0 0 0 0 0 0 0 0 0 0 0 0 0 0 0 0 0 0 0 0 0 0 0 0 0 0 0 0 0 0 0 0 0 0 0 0 0
0 0 0 0 0 0 0 0 0 0 0 0 0 0 0 0 0 0 0 0 0 0 0 0 0 0 0 0 0 0 0 0 0 0 0 0 0 0 0 0 0 0 0 0
0 0 0 0 0 0 0 0 0 0 0 0 0 0 0 0 0 0 0 -0 0 0 0 0 0 0 0 0 0 0 0 0 0 0 0 0 0 0 0 0 0 0 0 0
0 0 0 0 -0 0 0 0 0 0 0 0 0 0 0 0 0 0 0 0 0 0 0 0 0 0 0 0 0 0 0 0 0 0 0 0 0 0 0 0 0 0 0 0
0 0 0 0 0 0 0 -0 -0 -0 0 0 0 0 0 0 0 0 0 0 0 0 0 0 0 0 0 0 0 0 0 0 0 0 0 0 0 0 0 0 0 0 0 0
0 0 0 0 0 0 -0 -0 0 0 0 0 0 0 0 0 0 0 0 0 0 -0 -0 0 0 0 0 0 0 0 0 0 0 0 0 0 0 0 0 0 0 0 0 0
0 0 0 0 0 0 0 0 0 0 0 0 0 0 0 0 0 0 0 0 0 0 0 0 0 0 0 0 0 0 0 0 0 0 0 -0 0 0 0 0 0 0 0 0
0 0 0 0 0 0 0 0 0 0 0 0 0 0 0 0 0 0 0 0 0 0 0 0 0 0 0 0 0 0 0 -0 -0 -0 0 0 0 0 0 0 0 0 0 0
0 0 0 0 0 0 0 0 0 0 0 0 0 0 0 0 0 0 0 0 0 0 0 0 0 0 0 0 0 0 -0 -0 -0 -0 -0 0 0 0 0 0 0 0 0 0
0 0 0 0 0 0 0 0 0 0 0 0 0 0 0 0 0 0 0 0 0 0 0 0 0 -0 0 0 0 -0 0 -0 -0 -0 -0 -0 0 0 0 0 0 0 0 0
0 0 0 0 0 0 0 0 0 0 0 0 0 0 0 0 0 0 0 0 0 0 0 0 0 0 0 0 -0 -0 -0 -0 -0 0 0 0 0 0 0 0 0 0 0 0
0 0 0 0 0 0 0 0 0 -0 0 0 0 0 0 0 0 0 0 0 0 0 0 0 0 0 0 -0 -0 -0 -0 -0 0 0 0 0 0 0 0 0 0 0 0 0
0 0 0 0 0 0 0 0 0 -0 -0 0 0 0 0 0 0 0 0 0 0 0 0 0 0 0 0 -0 -0 -0 0 0 0 0 0 0 0 0 0 0 0 0 0 0
Wind_Speed_500mb
47 52 58 64 64 67 68 32 8 17 25 5 7 5 12 11 11 29 18 11 17 15 13 9 12 17 16 17 12 7 13 7 9 22 23 10 10 7 4 6 9 8 6 11
50 58 69 65 61 59 60 35 28 23 31 9 9 9 11 15 13 15 16 13 21 16 11 10 18 11 18 42 9 10 8 6 10 19 12 9 3 6 9 10 7 8 5 9
65 65 59 55 51 50 48 25 8 10 35 30 9 18 19 19 23 17 18 17 19 7 13 21 12 16 11 21 16 25 20 9 22 19 27 3 27 29 25 10 3 6 12 19
59 55 52 50 46 42 40 16 11 11 16 20 28 25 32 29 17 21 23 7 27 23 14 5 21 29 37 32 43 12 13 9 6 24 36 30 33 34 30 13 10 9 9 12
52 45 47 51 47 41 44 29 17 19 38 34 33 22 24 44 51 18 10 34 41 24 28 25 37 15 14 12 3 11 6 7 4 40 25 7 11 18 18 15 7 11 11 14
44 48 49 49 46 42 45 38 39 43 35 22 18 29 45 43 34 52 51 35 30 29 43 65 70 60 36 15 13 13 9 5 2 12 5 11 7 10 8 6 7 7 6 8
48 50 54 50 45 39 48 57 61 43 34 27 33 27 37 42 42 42 45 54 34 68 72 53 35 38 40 32 37 30 17 9 6 11 12 6 12 3 8 12 11 16 11 9
48 49 54 51 47 48 50 55 52 43 29 36 35 37 28 52 59 42 44 69 63 44 48 22 8 4 7 11 14 23 33 14 6 4 5 13 8 6 10 8 11 14 11 2
51 53 53 51 51 48 51 57 58 58 32 27 41 41 58 38 27 24 32 59 70 57 11 5 9 7 7 10 8 3 18 20 9 4 3 9 12 5 10 7 7 8 9 6
53 52 56 54 52 50 54 60 57 59 64 59 34 33 42 51 30 18 32 13 18 46 9 8 7 8 4 5 7 6 7 6 20 6 7 15 11 6 13 8 11 9 13 11
55 56 54 58 58 56 60 72 68 60 63 81 83 68 46 67 61 28 55 38 25 4 11 3 3 5 10 4 5 10 13 12 7 5 3 14 14 9 9 10 6 15 22 18
58 57 59 63 59 61 59 76 71 73 66 80 93 94 94 82 63 53 29 21 32 14 10 2 3 5 3 4 5 3 3 10 8 13 10 8 32 7 16 13 9 15 25 24
59 60 65 65 63 63 62 75 78 73 54 52 35 52 84 68 49 51 34 32 22 22 35 6 7 8 8 7 8 3 7 6 5 3 5 10 25 45 31 25 21 15 23 29
60 63 65 68 67 68 67 75 76 63 42 25 68 55 54 74 76 59 60 69 58 53 35 11 7 5 14 6 2 6 7 11 10 8 10 13 16 18 26 26 24 20 26 31
63 68 69 72 70 70 74 77 79 70 44 24 49 66 63 42 45 50 48 63 70 42 11 7 7 4 5 2 2 6 9 13 8 9 8 8 19 22 14 19 29 31 35 35
66 72 76 73 73 70 73 46 8 5 11 13 7 24 56 46 26 31 32 24 27 33 19 5 10 9 9 5 5 11 32 38 36 18 35 27 28 18 22 25 27 34 37 39
71 78 79 81 76 69 61 27 32 44 57 10 9 9 10 22 20 13 17 17 17 16 15 7 6 8 17 4 6 7 19 28 35 35 32 24 36 26 24 29 27 32 35 37
71 76 81 86 70 43 18 15 9 20 31 15 6 8 11 9 8 10 15 11 5 10 4 4 2 5 1 5 9 10 13 19 21 25 37 48 48 44 34 32 33 41 45 46
66 75 74 33 7 5 16 70 78 54 39 7 3 4 7 8 5 8 8 9 4 9 3 4 3 2 7 6 7 19 17 20 32 32 30 28 32 30 26 35 43 48 49 51
73 54 25 12 8 72 60 3 5 11 23 19 5 5 6 7 5 4 3 6 2 3 4 12 5 5 13 18 22 20 25 30 32 32 30 32 34 33 31 35 43 49 49 49
44 27 13 50 74 19 9 8 4 3 3 6 7 5 5 6 3 4 6 2 2 3 6 5 5 6 6 22 27 28 31 34 30 28 33 39 36 25 24 33 39 44 44 43
58 50 65 39 11 6 7 4 7 3 4 9 3 11 9 9 5 1 5 2 5 5 6 6 6 7 10 30 36 38 40 38 30 23 22 20 23 34 27 27 31 36 33 34
52 12 8 7 6 9 6 9 8 8 16 12 16 7 9 7 3 3 4 6 4 3 6 6 7 9 22 35 42 43 38 36 27 16 12 14 9 11 21 21 22 25 30 33
11 9 12 3 6 2 1 2 4 12 19 37 30 13 3 6 4 1 4 4 4 6 5 7 5 17 31 36 39 44 45 38 24 10 9 15 12 8 5 10 17 21 24 25
7 4 7 6 7 11 11 15 16 18 25 28 16 11 6 4 2 3 4 8 6 9 7 5 11 23 32 37 40 41 41 32 16 2 5 14 14 11 9 16 20 22 20 18
12 13 7 11 1 8 18 19 16 20 28 31 11 5 2 6 4 3 9 8 8 6 5 6 18 26 32 36 36 36 33 25 10 6 7 10 14 18 20 23 22 19 15 10
11 13 28 35 27 26 22 22 28 24 18 4 3 5 8 2 2 4 6 6 3 5 1 10 20 31 35 33 30 27 23 19 11 8 8 11 13 15 17 14 14 8 2 6
Wind_Direction_500mb
325 324 325 326 329 332 333 324 281 287 250 229 216 210 209 234 246 215 227 234 235 218 187 241 232 229 235 179 145 204 207 224 274 242 275 197 173 242 261 248 292 238 269 280
320 319 319 320 325 329 325 308 282 277 212 242 242 256 255 253 235 203 203 232 220 202 211 230 220 224 234 252 234 209 205 257 310 324 354 3 167 227 255 304 270 229 261 272
310 315 317 319 324 324 324 297 292 233 211 245 267 278 272 270 254 247 226 242 216 183 221 226 258 239 254 228 218 231 269 226 234 254 267 228 294 290 293 252 224 275 246 296
315 316 318 319 322 320 322 276 258 263 273 255 258 270 277 275 271 224 228 235 221 212 238 211 236 258 264 267 266 266 194 234 193 262 265 273 263 269 277 219 219 209 271 296
319 318 322 320 319 319 304 276 280 272 269 273 282 262 275 284 289 273 243 238 245 230 243 219 265 219 210 217 262 149 189 259 130 290 277 189 258 253 241 246 199 253 272 292
318 321 324 322 319 321 308 302 289 289 285 286 276 277 276 280 294 285 284 290 288 272 262 255 254 264 243 224 189 191 175 173 334 263 332 332 338 232 200 223 211 186 249 241
314 321 319 317 321 315 301 303 306 288 285 282 275 289 281 277 280 284 285 289 285 283 297 277 279 247 244 240 239 220 228 163 221 281 353 358 243 208 170 207 229 207 253 258
316 316 319 316 318 313 305 303 301 293 285 282 282 288 299 293 288 282 282 286 289 305 305 264 235 297 322 255 232 230 208 202 247 242 195 287 328 222 187 146 286 188 212 206
314 315 314 314 316 316 308 303 306 297 290 276 296 303 302 289 291 304 272 294 299 292 256 230 220 217 199 311 342 316 186 197 189 85 150 236 240 249 157 107 314 211 164 173
314 313 312 316 312 311 308 298 300 293 290 292 272 304 298 300 290 284 290 326 335 312 266 220 187 243 219 214 207 185 144 174 219 235 267 287 243 168 139 76 241 193 188 176
312 310 311 310 310 309 310 306 303 299 287 289 282 275 280 286 284 287 292 303 301 286 257 340 262 188 211 171 168 191 171 156 188 92 162 277 164 106 165 214 164 187 192 180
311 311 312 311 309 310 310 300 307 305 279 276 291 293 289 286 289 273 263 257 267 255 262 294 276 245 151 216 222 141 292 187 177 179 212 251 196 225 231 253 229 200 197 186
312 310 311 309 310 309 308 304 301 304 289 297 295 284 301 296 281 274 262 261 238 246 234 212 206 222 156 193 235 208 251 155 212 87 253 227 237 241 253 254 244 226 197 185
309 309 310 309 309 309 308 302 302 296 283 280 287 302 293 299 294 275 257 264 258 260 263 256 227 204 199 204 174 207 210 146 210 259 287 298 296 263 263 248 225 206 192 192
310 312 311 312 309 310 307 307 302 290 258 287 291 297 304 294 282 284 272 255 252 245 236 209 208 190 152 135 146 222 190 205 181 233 218 228 267 307 292 234 220 208 197 191
315 311 312 310 309 309 314 318 354 145 219 275 290 297 295 297 297 293 291 268 245 214 204 179 205 202 168 172 205 252 235 239 247 260 278 270 281 288 283 252 232 214 207 206
314 314 312 308 304 300 289 259 274 291 294 276 305 303 276 306 319 296 304 316 221 190 170 187 171 175 184 156 214 244 228 253 260 274 274 276 267 268 298 268 242 220 217 211
317 315 312 310 305 293 267 174 132 321 296 238 259 267 325 346 319 320 338 330 359 35 61 79 63 142 35 264 248 305 321 312 296 295 274 267 274 282 270 249 226 214 212 208
318 320 320 324 31 35 307 292 284 273 236 247 257 167 280 334 332 310 317 337 20 352 59 47 3 32 225 265 309 332 339 322 301 294 283 278 274 274 260 242 224 221 216 211
334 334 334 298 305 311 314 283 126 146 181 220 229 250 281 311 329 295 352 13 19 19 353 333 56 272 292 30 22 357 330 319 312 302 288 273 260 255 250 243 237 236 228 220
340 324 267 303 311 325 325 312 13 14 169 230 287 271 287 312 296 276 16 220 344 46 275 102 331 300 258 353 350 344 334 331 324 302 291 273 257 256 267 255 246 238 234 229
319 295 288 299 313 309 30 309 322 351 352 331 321 306 299 302 301 326 2 115 34 251 329 65 319 254 351 345 345 349 343 340 335 321 330 318 270 236 253 262 252 238 230 222
333 326 289 335 326 19 18 349 332 348 344 353 332 317 308 301 304 46 51 57 241 320 40 229 232 303 348 346 345 347 346 337 333 329 337 342 338 269 257 251 215 210 210 204
321 340 316 145 288 249 111 217 244 296 297 307 316 276 273 305 13 6 83 249 54 33 15 242 262 347 341 347 348 343 345 343 339 328 2 359 348 332 251 201 187 191 191 191
271 277 255 254 298 290 289 293 293 323 308 317 299 276 244 290 58 56 103 22 287 201 233 236 346 345 347 350 348 346 345 346 341 308 43 27 30 56 117 135 144 152 164 172
219 229 266 249 345 309 315 305 294 320 321 314 253 264 328 263 153 121 220 130 229 265 233 349 349 353 355 354 351 352 354 0 25 109 110 80 92 109 120 125 132 142 150 161
219 245 242 254 268 269 280 297 307 314 318 263 265 242 238 28 288 275 194 207 293 325 65 8 360 359 356 357 356 360 10 24 50 89 113 128 129 126 123 132 127 125 146 284
Wind_Speed_850mb
47 52 58 64 64 67 68 32 8 17 25 5 7 5 12 11 11 29 18 11 17 15 13 9 12 17 16 17 12 7 13 7 9 22 23 10 10 7 4 6 9 8 6 11
50 58 69 65 61 59 60 35 28 23 31 9 9 9 11 15 13 15 16 13 21 16 11 10 18 11 18 42 9 10 8 6 10 19 12 9 3 6 9 10 7 8 5 9
65 65 59 55 51 50 48 25 8 10 35 30 9 18 19 19 23 17 18 17 19 7 13 21 12 16 11 21 16 25 20 9 22 19 27 3 27 29 25 10 3 6 12 19
59 55 52 50 46 42 40 16 11 11 16 20 28 25 32 29 17 21 23 7 27 23 14 5 21 29 37 32 43 12 13 9 6 24 36 30 33 34 30 13 10 9 9 12
52 45 47 51 47 41 44 29 17 19 38 34 33 22 24 44 51 18 10 34 41 24 28 25 37 15 14 12 3 11 6 7 4 40 25 7 11 18 18 15 7 11 11 14
44 48 49 49 46 42 45 38 39 43 35 22 18 29 45 43 34 52 51 35 30 29 43 65 70 60 36 15 13 13 9 5 2 12 5 11 7 10 8 6 7 7 6 8
48 50 54 50 45 39 48 57 61 43 34 27 33 27 37 42 42 42 45 54 34 68 72 53 35 38 40 32 37 30 17 9 6 11 12 6 12 3 8 12 11 16 11 9
48 49 54 51 47 48 50 55 52 43 29 36 35 37 28 52 59 42 44 69 63 44 48 22 8 4 7 11 14 23 33 14 6 4 5 13 8 6 10 8 11 14 11 2
51 53 53 51 51 48 51 57 58 58 32 27 41 41 58 38 27 24 32 59 70 57 11 5 9 7 7 10 8 3 18 20 9 4 3 9 12 5 10 7 7 8 9 6
53 52 56 54 52 50 54 60 57 59 64 59 34 33 42 51 30 18 32 13 18 46 9 8 7 8 4 5 7 6 7 6 20 6 7 15 11 6 13 8 11 9 13 11
55 56 54 58 58 56 60 72 68 60 63 81 83 68 46 67 61 28 55 38 25 4 11 3 3 5 10 4 5 10 13 12 7 5 3 14 14 9 9 10 6 15 22 18
58 57 59 63 59 61 59 76 71 73 66 80 93 94 94 82 63 53 29 21 32 14 10 2 3 5 3 4 5 3 3 10 8 13 10 8 32 7 16 13 9 15 25 24
59 60 65 65 63 63 62 75 78 73 54 52 35 52 84 68 49 51 34 32 22 22 35 6 7 8 8 7 8 3 7 6 5 3 5 10 25 45 31 25 21 15 23 29
60 63 65 68 67 68 67 75 76 63 42 25 68 55 54 74 76 59 60 69 58 53 35 11 7 5 14 6 2 6 7 11 10 8 10 13 16 18 26 26 24 20 26 31
63 68 69 72 70 70 74 77 79 70 44 24 49 66 63 42 45 50 48 63 70 42 11 7 7 4 5 2 2 6 9 13 8 9 8 8 19 22 14 19 29 31 35 35
66 72 76 73 73 70 73 46 8 5 11 13 7 24 56 46 26 31 32 24 27 33 19 5 10 9 9 5 5 11 32 38 36 18 35 27 28 18 22 25 27 34 37 39
71 78 79 81 76 69 61 27 32 44 57 10 9 9 10 22 20 13 17 17 17 16 15 7 6 8 17 4 6 7 19 28 35 35 32 24 36 26 24 29 27 32 35 37
71 76 81 86 70 43 18 15 9 20 31 15 6 8 11 9 8 10 15 11 5 10 4 4 2 5 1 5 9 10 13 19 21 25 37 48 48 44 34 32 33 41 45 46
66 75 74 33 7 5 16 70 78 54 39 7 3 4 7 8 5 8 8 9 4 9 3 4 3 2 7 6 7 19 17 20 32 32 30 28 32 30 26 35 43 48 49 51
73 54 25 12 8 72 60 3 5 11 23 19 5 5 6 7 5 4 3 6 2 3 4 12 5 5 13 18 22 20 25 30 32 32 30 32 34 33 31 35 43 49 49 49
44 27 13 50 74 19 9 8 4 3 3 6 7 5 5 6 3 4 6 2 2 3 6 5 5 6 6 22 27 28 31 34 30 28 33 39 36 25 24 33 39 44 44 43
58 50 65 39 11 6 7 4 7 3 4 9 3 11 9 9 5 1 5 2 5 5 6 6 6 7 10 30 36 38 40 38 30 23 22 20 23 34 27 27 31 36 33 34
52 12 8 7 6 9 6 9 8 8 16 12 16 7 9 7 3 3 4 6 4 3 6 6 7 9 22 35 42 43 38 36 27 16 12 14 9 11 21 21 22 25 30 33
11 9 12 3 6 2 1 2 4 12 19 37 30 13 3 6 4 1 4 4 4 6 5 7 5 17 31 36 39 44 45 38 24 10 9 15 12 8 5 10 17 21 24 25
7 4 7 6 7 11 11 15 16 18 25 28 16 11 6 4 2 3 4 8 6 9 7 5 11 23 32 37 40 41 41 32 16 2 5 14 14 11 9 16 20 22 20 18
12 13 7 11 1 8 18 19 16 20 28 31 11 5 2 6 4 3 9 8 8 6 5 6 18 26 32 36 36 36 33 25 10 6 7 10 14 18 20 23 22 19 15 10
11 13 28 35 27 26 22 22 28 24 18 4 3 5 8 2 2 4 6 6 3 5 1 10 20 31 35 33 30 27 23 19 11 8 8 11 13 15 17 14 14 8 2 6
Wind_Direction_850mb
325 324 325 326 329 332 333 324 281 287 250 229 216 210 209 234 246 215 227 234 235 218 187 241 232 229 235 179 145 204 207 224 274 242 275 197 173 242 261 248 292 238 269 280
320 319 319 320 325 329 325 308 282 277 212 242 242 256 255 253 235 203 203 232 220 202 211 230 220 224 234 252 234 209 205 257 310 324 354 3 167 227 255 304 270 229 261 272
310 315 317 319 324 324 324 297 292 233 211 245 267 278 272 270 254 247 226 242 216 183 221 226 258 239 254 228 218 231 269 226 234 254 267 228 294 290 293 252 224 275 246 296
315 316 318 319 322 320 322 276 258 263 273 255 258 270 277 275 271 224 228 235 221 212 238 211 236 258 264 267 266 266 194 234 193 262 265 273 263 269 277 219 219 209 271 296
319 318 322 320 319 319 304 276 280 272 269 273 282 262 275 284 289 273 243 238 245 230 243 219 265 219 210 217 262 149 189 259 130 290 277 189 258 253 241 246 199 253 272 292
318 321 324 322 319 321 308 302 289 289 285 286 276 277 276 280 294 285 284 290 288 272 262 255 254 264 243 224 189 191 175 173 334 263 332 332 338 232 200 223 211 186 249 241
314 321 319 317 321 315 301 303 306 288 285 282 275 289 281 277 280 284 285 289 285 283 297 277 279 247 244 240 239 220 228 163 221 281 353 358 243 208 170 207 229 207 253 258
316 316 319 316 318 313 305 303 301 293 285 282 282 288 299 293 288 282 282 286 289 305 305 264 235 297 322 255 232 230 208 202 247 242 195 287 328 222 187 146 286 188 212 206
314 315 314 314 316 316 308 303 306 297 290 276 296 303 302 289 291 304 272 294 299 292 256 230 220 217 199 311 342 316 186 197 189 85 150 236 240 249 157 107 314 211 164 173
314 313 312 316 312 311 308 298 300 293 290 292 272 304 298 300 290 284 290 326 335 312 266 220 187 243 219 214 207 185 144 174 219 235 267 287 243 168 139 76 241 193 188 176
312 310 311 310 310 309 310 306 303 299 287 289 282 275 280 286 284 287 292 303 301 286 257 340 262 188 211 171 168 191 171 156 188 92 162 277 164 106 165 214 164 187 192 180
311 311 312 311 309 310 310 300 307 305 279 276 291 293 289 286 289 273 263 257 267 255 262 294 276 245 151 216 222 141 292 187 177 179 212 251 196 225 231 253 229 200 197 186
312 310 311 309 310 309 308 304 301 304 289 297 295 284 301 296 281 274 262 261 238 246 234 212 206 222 156 193 235 208 251 155 212 87 253 227 237 241 253 254 244 226 197 185
309 309 310 309 309 309 308 302 302 296 283 280 287 302 293 299 294 275 257 264 258 260 263 256 227 204 199 204 174 207 210 146 210 259 287 298 296 263 263 248 225 206 192 192
310 312 311 312 309 310 307 307 302 290 258 287 291 297 304 294 282 284 272 255 252 245 236 209 208 190 152 135 146 222 190 205 181 233 218 228 267 307 292 234 220 208 197 191
315 311 312 310 309 309 314 318 354 145 219 275 290 297 295 297 297 293 291 268 245 214 204 179 205 202 168 172 205 252 235 239 247 260 278 270 281 288 283 252 232 214 207 206
314 314 312 308 304 300 289 259 274 291 294 276 305 303 276 306 319 296 304 316 221 190 170 187 171 175 184 156 214 244 228 253 260 274 274 276 267 268 298 268 242 220 217 211
317 315 312 310 305 293 267 174 132 321 296 238 259 267 325 346 319 320 338 330 359 35 61 79 63 142 35 264 248 305 321 312 296 295 274 267 274 282 270 249 226 214 212 208
318 320 320 324 31 35 307 292 284 273 236 247 257 167 280 334 332 310 317 337 20 352 59 47 3 32 225 265 309 332 339 322 301 294 283 278 274 274 260 242 224 221 216 211
334 334 334 298 305 311 314 283 126 146 181 220 229 250 281 311 329 295 352 13 19 19 353 333 56 272 292 30 22 357 330 319 312 302 288 273 260 255 250 243 237 236 228 220
340 324 267 303 311 325 325 312 13 14 169 230 287 271 287 312 296 276 16 220 344 46 275 102 331 300 258 353 350 344 334 331 324 302 291 273 257 256 267 255 246 238 234 229
319 295 288 299 313 309 30 309 322 351 352 331 321 306 299 302 301 326 2 115 34 251 329 65 319 254 351 345 345 349 343 340 335 321 330 318 270 236 253 262 252 238 230 222
333 326 289 335 326 19 18 349 332 348 344 353 332 317 308 301 304 46 51 57 241 320 40 229 232 303 348 346 345 347 346 337 333 329 337 342 338 269 257 251 215 210 210 204
321 340 316 145 288 249 111 217 244 296 297 307 316 276 273 305 13 6 83 249 54 33 15 242 262 347 341 347 348 343 345 343 339 328 2 359 348 332 251 201 187 191 191 191
271 277 255 254 298 290 289 293 293 323 308 317 299 276 244 290 58 56 103 22 287 201 233 236 346 345 347 350 348 346 345 346 341 308 43 27 30 56 117 135 144 152 164 172
219 229 266 249 345 309 315 305 294 320 321 314 253 264 328 263 153 121 220 130 229 265 233 349 349 353 355 354 351 352 354 0 25 109 110 80 92 109 120 125 132 142 150 161
219 245 242 254 268 269 280 297 307 314 318 263 265 242 238 28 288 275 194 207 293 325 65 8 360 359 356 357 356 360 10 24 50 89 113 128 129 126 123 132 127 125 146 284